Regional Weather Roundup
Issued by NWS

Home | Current Version | Previous Version | Text Only | Print | Product List | Glossary On
Versions: 1 2 3 4 5 6 7 8 9 10 11 12 13 14 15 16 17 18 19 20 21 22 23 24 25 26 27 28 29 30 31 32 33 34 35 36 37 38 39 40 41 42 43 44 45 46 47 48 49 50
000
ASUS43 KMPX 241810
RWRMN
WEATHER ROUNDUP FOR MINNESOTA
NATIONAL WEATHER SERVICE TWIN CITIES/CHANHASSEN MN
1200 PM CST FRI FEB 24 2017


NOTE: "FAIR" INDICATES FEW OR NO CLOUDS BELOW 12,000 FEET WITH NO
SIGNIFICANT WEATHER AND/OR OBSTRUCTIONS TO VISIBILITY. N/A MEANS
CURRENT SKY AND/OR WEATHER CONDITIONS ARE NOT AVAILABLE.

MNZ060>063-068>070-241900-
   Twin Cities Metro

CITY           SKY/WX    TMP DP  RH WIND       PRES   REMARKS
TWIN CITIES    CLOUDY    27  16  63 N15G23    29.84F WCI  15
6HR MIN TEMP:  25; 6HR MAX TEMP:  27;

ST PAUL        CLOUDY    27  18  69 N14G26    29.85F WCI  16
CRYSTAL        CLOUDY    26  13  57 N16G29    29.84F WCI  14
BLAINE         CLOUDY    27  18  69 N22       29.86F WCI  12
LAKEVILLE      SNOW      23  21  93 N15       29.81F VSB 1/2 WCI  10
EDEN PRAIRIE   CLOUDY    27  15  61 N14G23    29.83F WCI  16
6HR MIN TEMP:  25; 6HR MAX TEMP:  27;

SOUTH ST PAUL  LGT SNOW  26  20  76 N14G23    29.83F WCI  15
LAKE ELMO      LGT SNOW  28  21  74 N10G18    29.83F WCI  19
$$
MNZ001>005-007-008-013>017-022>024-027-028-241900-
   Northwest Minnesota

CITY           SKY/WX    TMP DP  RH WIND       PRES   REMARKS
BEMIDJI        CLOUDY    17   6  63 NW12G17   30.02S WCI   4
HALLOCK        SUNNY     18   9  68 N16G22    30.14S WCI   3
ROSEAU         SUNNY     16   7  67 W6        30.09F WCI   7
WARROAD        SUNNY     16   5  62 NW8       30.08S WCI   5
THIEF RVR FALL SUNNY     19   8  62 N16       30.10F WCI   4
CROOKSTON      SUNNY     19  10  68 N16       30.13F WCI   5
FOSSTON        SUNNY     21  10  63 N17       30.07R WCI   7
DETROIT LAKES  CLOUDY    23  14  68 N8G22     30.03S WCI  14
MOORHEAD       SUNNY     21  14  73 N21       30.10S WCI   6
PARK RAPIDS    CLOUDY    19   4  51 N12       29.98F WCI   7
MAHNOMEN       FAIR      21  10  62 N21       30.05S WCI   6
$$
MNZ006-009>011-018-025>026-241900-
   North Central Minnesota

CITY           SKY/WX    TMP DP  RH WIND       PRES   REMARKS
BAUDETTE       SUNNY     14   2  58 NW15      30.05F WCI  -1
FLAG ISLAND    SUNNY     12   0  57 N10       30.07S WCI  -1
INTL FALLS     SUNNY     15   1  53 N8        30.03S WCI   4
6HR MIN TEMP:   8; 6HR MAX TEMP:  15;

WASKISH        PTSUNNY   19   5  53 N7        30.01F WCI  10
BIG FORK       MOSUNNY   18   3  53 N6        29.99F WCI   9
LONGVILLE      MOSUNNY   18   7  62 N9        29.99S WCI   6
GRAND RAPIDS   MOSUNNY   16   5  62 N10       29.99F WCI   4
CRANE LAKE     CLOUDY    14   3  62 NW6       30.03S WCI   5
ORR            CLOUDY    16   0  48 CALM      29.96S
COOK           MOSUNNY   16   1  53 N7        29.98S WCI   6
WALKER         FAIR      16   4  59 N12G20    30.00F WCI   3
$$
MNZ012-019>021-037-241900-
   Northeast Minnesota

CITY           SKY/WX    TMP DP  RH WIND       PRES   REMARKS
DULUTH         CLOUDY    17  10  74 N10       29.90F WCI   5
6HR MIN TEMP:  16; 6HR MAX TEMP:  18;

ELY            MOSUNNY   14   1  57 N7        29.95S WCI   4
HIBBING        CLOUDY    15   4  61 N12       29.95F WCI   2
EVELETH        MOSUNNY   17   0  47 NE8       29.95F WCI   7
DULUTH HARBOR  CLOUDY    21  12  68 N10G18    29.96S WCI  10
TWO HARBORS    MOSUNNY   21  10  63 N7        29.90F WCI  13
SILVER BAY     CLOUDY    19   5  53 N7        29.91F WCI  10
GRAND MARAIS     N/A     20   3  48 VRB6      29.97F WCI  12
G MARAIS ARPRT MOSUNNY   10  -2  56 N8        29.87S WCI  -1
$$
MNZ029>031-032-039>041-046>048-054>057-064-241900-
   West Central Minnesota

CITY           SKY/WX    TMP DP  RH WIND       PRES   REMARKS
FERGUS FALLS   MOSUNNY   25  12  58 N17G26    30.07S WCI  11
WHEATON        MOSUNNY   25  16  68 N21G28    30.06F WCI  10
MORRIS         CLOUDY    27  12  54 N21G30    29.98F WCI  13
ALEXANDRIA     CLOUDY    23   9  55 N17       29.95F WCI   9
ELBOW LAKE     FAIR      23  11  60 N20G26    30.01S WCI   8
WADENA         CLOUDY    19   9  63 N18       29.98S WCI   4
GLENWOOD       CLOUDY    23  10  58 N17G28    29.95F WCI   9
APPLETON       PTSUNNY   28  10  47 N26G33    29.98F WCI  13
BENSON         CLOUDY    28   7  40 NE21G28   29.98F WCI  15
ORTONVILLE       N/A     25  12  58 N25       30.01F WCI   9
MADISON        CLOUDY    28  12  50 N25G32    29.99F WCI  14
WILLMAR        FAIR      25  14  63 N18G29    29.94S WCI  11
$$
MNZ033>034-036-042>043-049>051-058-059-241900-
   Central Minnesota

CITY           SKY/WX    TMP DP  RH WIND       PRES   REMARKS
ST CLOUD       CLOUDY    23  11  60 N18G26    29.91S WCI   9
6HR MIN TEMP:  21; 6HR MAX TEMP:  23;

SAUK CENTRE    FAIR      21   8  57 N17G26    29.94F WCI   7
PAYNESVILLE    PTSUNNY   23  10  57 N18G24    29.92F WCI   8
AITKIN         SUNNY     21   9  58 N14       29.93F WCI   8
PINE RIVER     CLOUDY    18   7  62 N17       30.01S WCI   2
BRAINERD       MOSUNNY   20   9  62 N15       29.95F WCI   6
STAPLES        MOSUNNY   19   9  63 N17       29.97F WCI   4
LONG PRAIRIE   FAIR      21  10  63 NW17G25   29.95S WCI   7
LITTLE FALLS   CLOUDY    23   9  54 N8G17     29.94F WCI  14
LITCHFIELD     CLOUDY    25  12  58 N17       29.90F WCI  11
BUFFALO        CLOUDY    24  13  62 N16G22    29.89F WCI  11
MAPLE LAKE     CLOUDY    26  15  61 N15G21    29.91S WCI  14
HUTCHINSON     MOSUNNY   26  13  57 N17G32    29.88F WCI  13
$$
MNZ037-044-045-052-053-241900-
   East Central Minnesota

CITY           SKY/WX    TMP DP  RH WIND       PRES   REMARKS
PRINCETON      CLOUDY    25  14  63 N15G21    29.90S WCI  12
MORA           CLOUDY    21  12  68 N8        29.92S WCI  12
CAMBRIDGE      CLOUDY    25  14  63 NW13      29.88S WCI  13
RUSH CITY      CLOUDY    23  16  74 N14G22    29.89S WCI  11
MOOSE LAKE     CLOUDY    21  12  68 N10       29.91F WCI  10
HINCKLEY       CLOUDY    23  14  68 N10G20    29.90F WCI  12
CLOQUET        CLOUDY    18  10  73 N10G17    29.92S WCI   6
MCGREGOR       CLOUDY    19  12  73 N15G21    29.94F WCI   5
$$
MNZ071>073-080-081-089-090-097-098-241900-
   Southwest Minnesota

CITY           SKY/WX    TMP DP  RH WIND       PRES   REMARKS
MONTEVIDEO     CLOUDY    27  12  54 NE28      29.97F WCI  11
GRANITE FALLS  CLOUDY    28  14  56 N25       29.96F WCI  13
CANBY          CLOUDY    27  13  56 N25G32    29.98F WCI  11
MARSHALL       CLOUDY    24  13  62 N23G33    29.93F WCI   9
REDWOOD FALLS  CLOUDY    26  11  52 N14G25    29.90F WCI  14
OLIVIA         CLOUDY    27  14  59 N18G24    29.90F WCI  13
PIPESTONE      CLOUDY    25  10  54 N20G33    29.89S WCI  11
WINDOM         MOSUNNY   23  16  74 N28       29.84F HAZE    WCI   6
WORTHINGTON    CLOUDY    23  16  74 N28G35    29.84S HAZE    WCI   6
JACKSON        CLOUDY    23  18  80 N17G26    29.81F HAZE    WCI   9
TRACY          CLOUDY    25  15  66 N23G33    29.90F WCI  10
SLAYTON        CLOUDY    21  14  73 N25G35    29.87F WCI   4
$$
MNZ065>067-074>077-082>085-091>093-241900-
   South Central Minnesota

CITY           SKY/WX    TMP DP  RH WIND       PRES   REMARKS
MANKATO        LGT SNOW  25  18  74 N23       29.81F WCI  10
NEW ULM        CLOUDY    25  12  58 N15G21    29.84F WCI  12
ST JAMES       CLOUDY    25  18  74 N25       29.84F HAZE    WCI   9
FAIRMONT       SNOW      23  20  88 N25G32    29.80F VSB 1/2 WCI   7
GLENCOE        CLOUDY    26  18  69 N14G23    29.85F WCI  15
FARIBAULT      SNOW      25  21  86 N13G20    29.79F VSB 1/2 WCI  13
OWATONNA         N/A     25  19  80 N21       29.76R WCI  10
WASECA         SNOW      23  21  93 N21       29.79S VSB 1/2 WCI   8
ALBERT LEA     LGT SNOW  25  21  86 N17G26    29.73F VSB 1   WCI  11
$$
MNZ078>079-086>088-094>096-241900-
   Southeast Minnesota

CITY           SKY/WX    TMP DP  RH WIND       PRES   REMARKS
ROCHESTER      CLOUDY    26  24  92 N23G33    29.70S FOG     WCI  11
6HR MIN TEMP:  26; 6HR MAX TEMP:  27;

RED WING       LGT SNOW  27  21  80 N14       29.78F VSB 1   WCI  15
STANTON        LGT SNOW  26  22  86 N20       29.77F WCI  12
DODGE CENTER   CLOUDY    25  21  86 N21G26    29.72  WCI  10
WINONA         CLOUDY    32  27  80 NE8       29.72F WCI  25
AUSTIN           N/A     25  21  86 N14G20    29.70F WCI  13
PRESTON        CLOUDY    28  24  87 N17G26    29.66S WCI  15
$$
ABBREVIATIONS USED IN REMARKS
   TC - TEMPERATURES IN CELSIUS
  WCI - WIND CHILL INDEX
   HX - HEAT INDEX
  VSB - VISIBILITY
$$




USA.gov is the U.S. government's official web portal to all federal, state and local government web resources and services.